Glendive, MT

8:27 AM MDT on September 21, 2017 (GMT -0600)
Dawson Community

Weather History for KGDV - December, 2012

Change the Weather History Date:

Monday, December 24, 2012

  Actual Average Record
Temperature  
Mean Temperature -1 °F -  
Max Temperature 3 °F 25 °F 51 °F (1999)
Min Temperature -5 °F 7 °F -22 °F (1996)
Degree Days  
Heating Degree Days 66    
Moisture  
Dew Point -5 °F    
Average Humidity 84    
Maximum Humidity 100    
Minimum Humidity 71    
Precipitation  
Precipitation 0.00 in - - ()
Sea Level Pressure  
Sea Level Pressure 30.17 in    
Wind  
Wind Speed 5 mph (NNE)    
Max Wind Speed 10 mph    
Max Gust Speed -    
Visibility 9 miles    
Events      
Averages and records for this station are not official NWS values.
T = Trace of Precipitation, MM = Missing Value Source: NWS Daily Summary

Daily Weather History Graph

Daily Weather History Graph

Search for Another Location

Airport or City:

Trip Planner

Search our weather history database for the weather conditions in past years. The results will help you decide how hot, cold, wet, or windy it might be!

Date:

Astronomy

Dec. 24, 2012 Rise Set
Actual Time 7:44 AM MST 4:14 PM MST
Civil Twilight 7:08 AM MST 4:49 PM MST
Nautical Twilight 6:29 AM MST 5:28 PM MST
Astronomical Twilight 5:52 AM MST 6:05 PM MST
Moon 1:47 PM MST (12/24) 4:19 AM MST (12/24)
Length of Visible Light 9h 41m
Length of Day
8h 29m
Waxing Gibbous, 89% of the Moon is Illuminated
Dec 24
Waxing Gibbous
Dec 28
Full
Jan 4
Last Quarter
Jan 11
New
Jan 18
First Quarter

Hourly Weather History & Observations

Time (MST) Temp. Windchill Dew Point Humidity Pressure Visibility Wind Dir Wind Speed Gust Speed Precip Events Conditions
12:15 AM -4.0 °F -16.3 °F -5.8 °F 92% 30.05 in 10.0 mi NNW 5.8 mph - N/A   Clear
12:35 AM -4.0 °F -16.3 °F - N/A% 30.05 in 10.0 mi North 5.8 mph - N/A   Clear
12:55 AM -4.0 °F -12.4 °F -7.6 °F 85% 30.05 in 10.0 mi North 3.5 mph - N/A   Partly Cloudy
1:15 AM -2.2 °F - -7.6 °F 78% 30.05 in 10.0 mi Calm Calm - N/A   Partly Cloudy
1:35 AM -4.0 °F - -7.6 °F 85% 30.04 in 10.0 mi Calm Calm - N/A   Clear
1:55 AM -5.8 °F -14.5 °F -11.2 °F 77% 30.04 in 10.0 mi North 3.5 mph - N/A   Clear
2:35 AM -5.8 °F - -11.2 °F 77% 30.03 in 10.0 mi Calm Calm - N/A   Overcast
2:55 AM -4.0 °F -12.4 °F -4.0 °F 100% 30.03 in 4.0 mi NNE 3.5 mph - N/A   Overcast
3:15 AM -4.0 °F - -11.2 °F 71% 30.04 in 0.5 mi Calm Calm - N/A   Mostly Cloudy
3:35 AM -5.8 °F -14.5 °F -9.4 °F 84% 30.04 in 8.0 mi NNE 3.5 mph - N/A   Clear
3:55 AM -5.8 °F -19.9 °F -7.6 °F 92% 30.04 in 10.0 mi NNE 6.9 mph - N/A   Scattered Clouds
4:15 AM -5.8 °F -19.9 °F -11.2 °F 77% 30.04 in 10.0 mi NE 6.9 mph - N/A   Clear
4:35 AM -5.8 °F -14.5 °F -9.4 °F 84% 30.05 in 10.0 mi NE 3.5 mph - N/A   Clear
4:55 AM -5.8 °F -19.9 °F -9.4 °F 84% 30.05 in 10.0 mi NNE 6.9 mph - N/A   Clear
5:15 AM -5.8 °F -16.7 °F -9.4 °F 84% 30.06 in 10.0 mi NNE 4.6 mph - N/A   Clear
5:35 AM -5.8 °F -16.7 °F -9.4 °F 84% 30.07 in 10.0 mi NNE 4.6 mph - N/A   Clear
5:55 AM -5.8 °F -16.7 °F -11.2 °F 77% 30.08 in 10.0 mi NNE 4.6 mph - N/A   Clear
6:15 AM -5.8 °F -16.7 °F -7.6 °F 92% 30.09 in 10.0 mi NNE 4.6 mph - N/A   Clear
6:35 AM -5.8 °F -16.7 °F -9.4 °F 84% 30.09 in 10.0 mi NE 4.6 mph - N/A   Clear
6:55 AM -4.0 °F -14.6 °F -7.6 °F 85% 30.10 in 10.0 mi NE 4.6 mph - N/A   Clear
7:15 AM -5.8 °F -16.7 °F -9.4 °F 84% 30.10 in 10.0 mi NE 4.6 mph - N/A   Clear
7:35 AM -5.8 °F -18.4 °F -9.4 °F 84% 30.10 in 10.0 mi NE 5.8 mph - N/A   Clear
7:55 AM -5.8 °F -16.7 °F -9.4 °F 84% 30.11 in 10.0 mi NE 4.6 mph - N/A   Clear
8:15 AM -5.8 °F -19.9 °F -9.4 °F 84% 30.12 in 10.0 mi NE 6.9 mph - N/A   Clear
8:35 AM -5.8 °F -19.9 °F -7.6 °F 92% 30.12 in 10.0 mi NE 6.9 mph - N/A   Clear
8:55 AM -4.0 °F -17.8 °F -7.6 °F 85% 30.12 in 10.0 mi NNE 6.9 mph - N/A   Clear
9:15 AM -2.2 °F -15.6 °F -5.8 °F 85% 30.13 in 10.0 mi NE 6.9 mph - N/A   Clear
9:35 AM -2.2 °F -15.6 °F -5.8 °F 85% 30.13 in 10.0 mi NE 6.9 mph - N/A   Clear
9:55 AM -2.2 °F -16.8 °F -7.6 °F 78% 30.14 in 10.0 mi NE 8.1 mph - N/A   Clear
10:15 AM -2.2 °F -16.8 °F -4.0 °F 92% 30.14 in 10.0 mi NE 8.1 mph - N/A   Clear
10:35 AM -2.2 °F -15.6 °F -7.6 °F 78% 30.15 in 10.0 mi NE 6.9 mph - N/A   Clear
10:55 AM -2.2 °F -15.6 °F -4.0 °F 92% 30.15 in 10.0 mi NE 6.9 mph - N/A   Clear
11:15 AM -0.4 °F -13.4 °F -4.0 °F 85% 30.15 in 10.0 mi NE 6.9 mph - N/A   Clear
11:35 AM -0.4 °F -14.7 °F -2.2 °F 92% 30.14 in 10.0 mi NE 8.1 mph - N/A   Clear
11:55 AM -0.4 °F -14.7 °F -0.4 °F 100% 30.14 in 10.0 mi NE 8.1 mph - N/A   Clear
12:15 PM -0.4 °F -14.7 °F -4.0 °F 85% 30.15 in 10.0 mi NE 8.1 mph - N/A   Clear
12:35 PM 1.4 °F -13.5 °F -2.2 °F 85% 30.15 in 10.0 mi NE 9.2 mph - N/A   Clear
12:55 PM 1.4 °F -12.5 °F -2.2 °F 85% 30.15 in 10.0 mi NE 8.1 mph - N/A   Clear
1:15 PM 1.4 °F -14.5 °F -2.2 °F 85% 30.15 in 10.0 mi NE 10.4 mph - N/A   Clear
1:35 PM 1.4 °F -13.5 °F -2.2 °F 85% 30.15 in 10.0 mi NE 9.2 mph - N/A   Mostly Cloudy
2:15 PM 1.4 °F -13.5 °F -2.2 °F 85% 30.16 in 10.0 mi NE 9.2 mph - N/A   Mostly Cloudy
2:35 PM 1.4 °F -13.5 °F -4.0 °F 78% 30.17 in 10.0 mi NE 9.2 mph - N/A   Scattered Clouds
2:55 PM 1.4 °F -13.5 °F -2.2 °F 85% 30.17 in 10.0 mi NNE 9.2 mph - N/A   Partly Cloudy
3:15 PM 1.4 °F -12.5 °F -5.8 °F 72% 30.18 in 10.0 mi NNE 8.1 mph - N/A   Partly Cloudy
3:35 PM 1.4 °F -14.5 °F -2.2 °F 85% 30.19 in 10.0 mi NNE 10.4 mph - N/A   Scattered Clouds
3:55 PM 1.4 °F -9.9 °F -4.0 °F 78% 30.20 in 10.0 mi NNE 5.8 mph - N/A   Mostly Cloudy
4:15 PM 1.4 °F -11.3 °F -2.2 °F 85% 30.21 in 10.0 mi NE 6.9 mph - N/A   Overcast
4:35 PM 1.4 °F -13.5 °F -0.4 °F 92% 30.22 in 10.0 mi NE 9.2 mph - N/A   Overcast
4:55 PM 1.4 °F -13.5 °F -2.2 °F 85% 30.23 in 10.0 mi NE 9.2 mph - N/A   Overcast
5:15 PM 1.4 °F -11.3 °F -2.2 °F 85% 30.24 in 10.0 mi NE 6.9 mph - N/A   Overcast
5:35 PM 1.4 °F -12.5 °F -2.2 °F 85% 30.25 in 10.0 mi NE 8.1 mph - N/A   Overcast
6:15 PM 1.4 °F -11.3 °F -2.2 °F 85% 30.27 in 10.0 mi NE 6.9 mph - N/A   Overcast
6:35 PM 1.4 °F -9.9 °F -0.4 °F 92% 30.27 in 8.0 mi NE 5.8 mph - N/A   Overcast
6:55 PM 3.2 °F -9.1 °F -2.2 °F 78% 30.28 in 3.0 mi NE 6.9 mph - N/A   Overcast
7:15 PM 3.2 °F -7.8 °F -2.2 °F 78% 30.28 in 2.5 mi NNE 5.8 mph - N/A   Mostly Cloudy
7:35 PM 3.2 °F -4.2 °F -0.4 °F 85% 30.29 in 3.0 mi NNE 3.5 mph - N/A   Clear
7:55 PM 3.2 °F -7.8 °F -0.4 °F 85% 30.29 in 4.0 mi NNE 5.8 mph - N/A   Clear
8:15 PM 3.2 °F -6.2 °F -2.2 °F 78% 30.30 in 3.0 mi North 4.6 mph - N/A   Clear
8:35 PM 3.2 °F -4.2 °F -0.4 °F 85% 30.30 in 2.5 mi North 3.5 mph - N/A   Clear
8:55 PM 3.2 °F -4.2 °F -0.4 °F 85% 30.31 in 5.0 mi North 3.5 mph - N/A   Clear
9:15 PM 3.2 °F - -2.2 °F 78% 30.31 in 5.0 mi Calm Calm - N/A   Clear
9:35 PM 3.2 °F - -2.2 °F 78% 30.32 in 4.0 mi Calm Calm - N/A   Clear
9:55 PM 3.2 °F - -0.4 °F 85% 30.32 in 4.0 mi Calm Calm - N/A   Scattered Clouds
10:15 PM 3.2 °F - -0.4 °F 85% 30.33 in 6.0 mi Calm Calm - N/A   Partly Cloudy
10:35 PM 3.2 °F - -0.4 °F 85% 30.33 in 8.0 mi Calm Calm - N/A   Clear
11:15 PM 3.2 °F - -0.4 °F 85% 30.34 in 7.0 mi Calm Calm - N/A   Clear
11:35 PM 1.4 °F - -2.2 °F 85% 30.34 in 10.0 mi Calm Calm - N/A   Clear
11:55 PM 1.4 °F -6.2 °F -5.8 °F 72% 30.34 in 10.0 mi West 3.5 mph - N/A   Clear